Location: Davayat
(45.9471°N, 3.1105°E)
Time: 13:22:31
(UTC+00:00)

Cosmos 1151 Rocket - Pass Details

Date: 01 December 2020
Orbit: 593 x 615 km, 82.5° (Epoch: 27 January)

Event Time Altitude Azimuth Distance (km) Brightness Sun altitude
Rises 17:05:35 0° 182° (S) 2,830 6.8 -10.4°
Reaches altitude 10° 17:07:47 10° 180° (S) 1,930 5.9 -10.8°
Maximum altitude 17:12:02 73° 96° (E) 629 2.9 -11.5°
Drops below altitude 10° 17:16:18 10° 13° (NNE) 1,939 5.3 -12.2°
Sets 17:18:31 0° 11° (NNE) 2,845 6.2 -12.5°
